Home   Weather   Riyadh   Past weeks
Flag for Saudi Arabia

Past Weather in Riyadh, Saudi Arabia — Yesterday and Last 2 Weeks

Now
93 °F

Sunny.


Feels Like: 89 °F
Forecast: 110 / 82 °F
Wind: 12 mph from North

Location: King Khaled International Airport

Current Time: Jul 20, 2019 at 8:40:06 am

Latest Report: Jul 20, 2019 at 8:00 am


Visibility: 10 mi

Pressure: 29.74 "Hg (27.85 "Hg at 590m altitude)

Humidity: 12%

Dew Point: 34 °F

Location of RiyadhLocation

Past Weather in Riyadh — Graph

°F

Riyadh Temperature Yesterday

Maximum temperature yesterday: 108 °F (at 12:00 pm)
Minimum temperature yesterday: 86 °F (at 6:00 am)
Average temperature yesterday: 100 °F

High & Low Weather Summary for the Past Weeks

 TemperatureHumidityPressure
High115 °F (Jul 6, 2:00 pm)21% (Jul 17, 12:00 am)29.77 "Hg (Jul 17, 12:00 am)
Low81 °F (Jul 11, 5:00 am)5% (Jul 5, 2:00 pm)29.56 "Hg (Jul 7, 4:00 pm)
Average98 °F10%29.68 "Hg
* Reported Jul 5 7:00 am — Jul 20 7:00 am, Riyadh. Weather by CustomWeather, © 2019

Note: Actual official high and low records may vary slightly from our data, if they occured in-between our weather recording intervals... More about our weather records

Advertising

Riyadh Weather History for the Previous 24 Hours

Scroll right to see more
 ConditionsComfort  
Time TempWeatherWind HumidityBarometerVisibility
7:00 am
Sat, Jul 20
90 °FSunny.10 mph13%29.77 "Hg10 mi
6:00 am84 °FSunny.9 mph15%29.74 "Hg10 mi
5:00 am82 °FClear.5 mph17%29.74 "Hg10 mi
4:00 am86 °FClear.7 mph15%29.71 "Hg10 mi
3:00 am91 °FClear.9 mph12%29.71 "Hg4 mi
2:00 am93 °FDuststorm.9 mph13%29.71 "Hg2 mi
1:00 am95 °FDuststorm.13 mph12%29.71 "Hg2 mi
12:00 am97 °FDuststorm.13 mph14%29.71 "Hg2 mi
11:00 pm
Fri, Jul 19
99 °FLow level haze.16 mph14%29.74 "Hg2 mi
10:00 pm100 °FDuststorm.17 mph13%29.71 "Hg2 mi
9:00 pm102 °FLow level haze.17 mph11%29.71 "Hg2 mi
8:00 pm102 °FLow level haze.20 mph11%29.71 "Hg1 mi
7:00 pm104 °FSandstorm.25 mph9%29.68 "Hg1 mi
6:00 pm106 °FSandstorm.26 mph9%29.65 "Hg1 mi
5:00 pm108 °FSandstorm.25 mph8%29.65 "Hg1 mi
4:00 pm108 °FSandstorm.28 mph9%29.65 "Hg1 mi
3:00 pm108 °FSandstorm.28 mph8%29.65 "Hg1 mi
2:00 pm108 °FSandstorm.29 mph8%29.68 "Hg1 mi
1:00 pm108 °FSandstorm.29 mph9%29.68 "Hg1 mi
12:00 pm108 °FLow level haze.31 mph9%29.71 "Hg1 mi
11:00 am106 °FLow level haze.26 mph11%29.71 "Hg2 mi
10:00 am104 °FSunny.22 mph12%29.71 "Hg10 mi
9:00 am100 °FSunny.14 mph14%29.74 "Hg10 mi
8:00 am97 °FSunny.13 mph13%29.71 "Hg10 mi
Weather by CustomWeather, © 2019

See weather overview